GW0991 Weather Reports


Display with metric or nautical units.
time (UTC)temp
F
wind
direction
speed
MPH
gust
MPH
rain 1hr
in
rain 24hr
in
rain mn
in
humidity
%
barometer
mb
20260504081628 54 177 4.0 5.0 0.00 0.00 0.00 85 1008.0
20260504081123 53 210 3.0 5.0 0.00 0.00 0.00 85 1008.3
20260504080620 53 194 4.0 5.0 0.00 0.00 0.00 86 1008.4
20260504080117 53 196 4.0 5.0 0.00 0.00 0.00 86 1008.2
20260504050433 56 187 3.0 3.0 0.00 0.00 0.00 76 1009.9
20260504045930 56 187 2.0 5.0 0.00 0.00 0.00 75 1009.8
20260504045426 56 205 2.0 3.0 0.00 0.00 0.00 76 1010.0
20260504044922 56 209 1.0 2.0 0.00 0.00 0.00 75 1009.9
20260504044420 56 194 2.0 3.0 0.00 0.00 0.00 74 1010.0
20260504043917 56 204 4.0 5.0 0.00 0.00 0.00 75 1009.9
20260504043414 55 202 2.0 3.0 0.00 0.00 0.00 76 1010.0
20260504042912 55 187 1.0 2.0 0.00 0.00 0.00 75 1010.0
20260504042408 56 187 1.0 2.0 0.00 0.00 0.00 74 1010.1
20260504041904 55 184 1.0 2.0 0.00 0.00 0.00 76 1010.0
20260504041401 54 194 2.0 2.0 0.00 0.00 0.00 78 1010.0
20260504040856 55 177 0.0 0.0 0.00 0.00 0.00 76 1009.8
20260504040354 55 188 0.0 1.0 0.00 0.00 0.00 75 1009.9
20260504035850 56 186 0.0 0.0 0.00 0.00 0.00 74 1009.8
20260504035348 58 190 1.0 1.0 0.00 0.00 0.00 71 1009.7
20260504034844 58 191 1.0 1.0 0.00 0.00 0.00 70 1009.9
20260504034342 58 202 1.0 2.0 0.00 0.00 0.00 69 1009.9
20260504033839 59 198 0.0 1.0 0.00 0.00 0.00 68 1010.0
20260504033337 59 196 1.0 2.0 0.00 0.00 0.00 68 1010.3
20260504032833 59 193 2.0 2.0 0.00 0.00 0.00 67 1010.2
20260504032330 60 214 2.0 3.0 0.00 0.00 0.00 66 1010.3
20260504031827 60 203 2.0 3.0 0.00 0.00 0.00 66 1010.2
20260504031324 59 217 2.0 2.0 0.00 0.00 0.00 68 1010.2
20260504030820 59 196 0.0 1.0 0.00 0.00 0.00 68 1010.2
20260504030318 60 203 0.0 1.0 0.00 0.00 0.00 67 1010.1
20260504025814 60 203 0.0 1.0 0.00 0.00 0.00 67 1010.2
20260504025311 60 205 2.0 2.0 0.00 0.00 0.00 66 1010.2
20260504024808 60 200 1.0 1.0 0.00 0.00 0.00 66 1010.2
20260504024304 59 205 0.0 0.0 0.00 0.00 0.00 68 1010.3
20260504023801 58 191 1.0 1.0 0.00 0.00 0.00 70 1010.1
20260504023257 58 199 0.0 0.0 0.00 0.00 0.00 70 1010.2
20260504022753 59 200 0.0 1.0 0.00 0.00 0.00 70 1010.1
20260504022250 59 200 0.0 0.0 0.00 0.00 0.00 68 1010.0
20260504021747 60 201 0.0 1.0 0.00 0.00 0.00 67 1010.1
20260504021245 60 204 1.0 1.0 0.00 0.00 0.00 66 1010.2
20260504020741 61 205 1.0 2.0 0.00 0.00 0.00 66 1010.1
20260504020237 61 208 2.0 2.0 0.00 0.00 0.00 65 1010.0
20260504015734 62 209 2.0 3.0 0.00 0.00 0.00 64 1010.2
20260504015230 62 204 2.0 3.0 0.00 0.00 0.00 64 1010.1
20260504014726 62 203 3.0 5.0 0.00 0.00 0.00 64 1009.8
20260504014223 62 204 1.0 3.0 0.00 0.00 0.00 63 1010.0
20260504013721 62 202 1.0 2.0 0.00 0.00 0.00 63 1010.2
20260504013218 62 193 0.0 1.0 0.00 0.00 0.00 63 1009.7
20260504012714 62 199 0.0 1.0 0.00 0.00 0.00 63 1009.8
20260504012213 62 198 2.0 2.0 0.00 0.00 0.00 62 1009.7
20260504011709 63 196 1.0 2.0 0.00 0.00 0.00 62 1010.1
20260504011206 63 231 2.0 2.0 0.00 0.00 0.00 61 1009.7
20260504010702 63 204 0.0 1.0 0.00 0.00 0.00 62 1009.9
20260504010157 63 210 1.0 1.0 0.00 0.00 0.00 62 1009.7
20260504005654 63 223 2.0 2.0 0.00 0.00 0.00 60 1009.8
20260504005151 64 203 0.0 1.0 0.00 0.00 0.00 60 1009.7
20260504004649 64 218 1.0 2.0 0.00 0.00 0.00 60 1009.6
20260504004146 64 209 2.0 2.0 0.00 0.00 0.00 59 1009.5
20260504003642 65 198 1.0 2.0 0.00 0.00 0.00 58 1009.5
20260504003139 66 263 2.0 5.0 0.00 0.00 0.00 57 1009.7
20260504002636 66 214 1.0 5.0 0.00 0.00 0.00 56 1009.4
20260504002134 67 236 4.0 7.0 0.00 0.00 0.00 55 1009.6
20260504001631 67 235 6.0 8.0 0.00 0.00 0.00 54 1009.6
20260504001127 67 218 0.0 3.0 0.00 0.00 0.00 54 1009.6
20260504000625 68 208 1.0 3.0 0.00 0.00 0.00 54 1009.8
20260504000122 67 220 1.0 5.0 0.00 0.00 0.00 53 1009.5
20260503235620 67 215 1.0 3.0 0.00 0.00 0.00 54 1009.7
20260503235116 67 245 1.0 2.0 0.00 0.00 0.00 53 1009.5
20260503234614 67 223 2.0 2.0 0.00 0.00 0.00 53 1009.7
20260503234112 67 210 3.0 5.0 0.00 0.00 0.00 53 1009.5
20260503233609 67 270 3.0 5.0 0.00 0.00 0.00 52 1009.5
20260503233104 67 213 2.0 3.0 0.00 0.00 0.00 52 1009.9
20260503232601 67 218 2.0 7.0 0.00 0.00 0.00 52 1009.8
20260503232059 67 229 2.0 5.0 0.00 0.00 0.00 52 1009.8
20260503231556 68 202 2.0 5.0 0.00 0.00 0.00 51 1009.5
20260503231053 68 216 2.0 5.0 0.00 0.00 0.00 49 1009.7
20260503230549 67 219 3.0 3.0 0.00 0.00 0.00 49 1009.7
20260503230047 67 238 3.0 5.0 0.00 0.00 0.00 50 1009.8
20260503225544 67 238 3.0 9.0 0.00 0.00 0.00 51 1009.8
20260503225039 67 210 5.0 8.0 0.00 0.00 0.00 50 1009.8
20260503224537 66 189 5.0 9.0 0.00 0.00 0.00 50 1010.0
20260503224035 67 217 3.0 8.0 0.00 0.00 0.00 51 1010.1
20260503223533 66 238 5.0 7.0 0.00 0.00 0.00 50 1010.0
20260503223028 66 203 3.0 5.0 0.00 0.00 0.00 51 1010.2
20260503222526 66 221 6.0 8.0 0.00 0.00 0.00 50 1010.0
20260503222024 67 203 3.0 9.0 0.00 0.00 0.00 50 1010.3
20260503221522 67 216 1.0 8.0 0.00 0.00 0.00 50 1010.4
20260503221019 67 189 3.0 11.0 0.00 0.00 0.00 50 1010.1
20260503220515 67 215 5.0 9.0 0.00 0.00 0.00 50 1010.3
20260503220012 67 223 3.0 7.0 0.00 0.00 0.00 50 1010.2
20260503215509 66 219 6.0 9.0 0.00 0.00 0.00 50 1010.3
20260503215006 66 238 5.0 14.0 0.00 0.00 0.00 50 1010.2
20260503214504 67 196 3.0 10.0 0.00 0.00 0.00 50 1010.1
20260503214001 67 233 5.0 14.0 0.00 0.00 0.00 50 1010.3
20260503213459 66 199 11.0 13.0 0.00 0.00 0.00 50 1010.6
20260503212955 66 182 7.0 13.0 0.00 0.00 0.00 50 1010.6
20260503212453 65 241 4.0 9.0 0.00 0.00 0.00 51 1010.5
20260503211950 65 233 6.0 17.0 0.00 0.00 0.00 51 1010.5
20260503211447 66 215 8.0 15.0 0.00 0.00 0.00 51 1010.8
20260503210942 66 218 3.0 13.0 0.00 0.00 0.00 51 1010.5
20260503210439 65 212 4.0 17.0 0.00 0.00 0.00 52 1010.4
20260503205934 65 223 4.0 8.0 0.00 0.00 0.00 53 1010.1
20260503205431 65 221 3.0 6.0 0.00 0.00 0.00 53 1010.5
20260503204927 65 196 6.0 13.0 0.00 0.00 0.00 51 1010.4
20260503204425 64 209 5.0 15.0 0.00 0.00 0.00 52 1010.8
20260503203922 65 234 12.0 17.0 0.00 0.00 0.00 50 1011.1
20260503203419 65 192 11.0 16.0 0.00 0.00 0.00 51 1011.0
20260503202916 65 227 11.0 14.0 0.00 0.00 0.00 50 1010.9
20260503202414 65 223 8.0 20.0 0.00 0.00 0.00 51 1010.9
20260503201913 65 207 9.0 11.0 0.00 0.00 0.00 52 1011.0
20260503201409 64 214 5.0 18.0 0.00 0.00 0.00 52 1011.2
20260503200907 66 198 8.0 11.0 0.00 0.00 0.00 50 1011.4
20260503200403 65 214 7.0 21.0 0.00 0.00 0.00 49 1011.2
20260503195900 66 196 14.0 22.0 0.00 0.00 0.00 48 1011.3
20260503195356 66 189 9.0 16.0 0.00 0.00 0.00 49 1011.1
20260503194853 66 16 8.0 15.0 0.00 0.00 0.00 49 1011.7
20260503194349 66 193 14.0 24.0 0.00 0.00 0.00 48 1011.8
20260503193846 66 214 8.0 22.0 0.00 0.00 0.00 48 1011.4
20260503193341 66 199 12.0 21.0 0.00 0.00 0.00 47 1011.7
20260503192837 66 220 7.0 18.0 0.00 0.00 0.00 47 1011.8
20260503192333 66 189 7.0 21.0 0.00 0.00 0.00 47 1011.8
20260503191830 66 237 9.0 27.0 0.00 0.00 0.00 48 1012.1
20260503191327 65 178 11.0 14.0 0.00 0.00 0.00 48 1011.7
20260503190824 65 162 9.0 18.0 0.00 0.00 0.00 50 1011.7
20260503190321 66 230 14.0 24.0 0.00 0.00 0.00 48 1011.7
20260503185818 66 204 10.0 15.0 0.00 0.00 0.00 51 1011.9
20260503185313 64 234 10.0 16.0 0.00 0.00 0.00 51 1012.2
20260503184808 64 201 7.0 14.0 0.00 0.00 0.00 52 1012.0
20260503184305 64 197 7.0 17.0 0.00 0.00 0.00 51 1012.2
20260503183800 64 203 10.0 20.0 0.00 0.00 0.00 51 1012.4
20260503183258 63 165 10.0 14.0 0.00 0.00 0.00 50 1012.5
20260503182755 63 187 15.0 22.0 0.00 0.00 0.00 50 1013.2
20260503182254 64 196 7.0 15.0 0.00 0.00 0.00 51 1013.1
20260503181750 61 172 3.0 18.0 0.00 0.00 0.00 54 1013.3
20260503181248 62 236 9.0 16.0 0.00 0.00 0.00 53 1013.7
20260503180744 61 210 4.0 13.0 0.00 0.00 0.00 55 1013.8
20260503180242 61 205 8.0 16.0 0.00 0.00 0.00 54 1014.1
20260503175738 61 212 3.0 17.0 0.00 0.00 0.00 54 1014.2
20260503175237 61 213 7.0 13.0 0.00 0.00 0.00 53 1014.4
20260503174732 62 265 6.0 15.0 0.00 0.00 0.00 53 1014.7
20260503174230 62 134 7.0 13.0 0.00 0.00 0.00 52 1014.6
20260503173725 61 211 7.0 11.0 0.00 0.00 0.00 54 1014.6
20260503173221 61 217 6.0 14.0 0.00 0.00 0.00 54 1015.1
20260503172718 61 213 11.0 15.0 0.00 0.00 0.00 53 1015.1
20260503172215 60 175 9.0 11.0 0.00 0.00 0.00 53 1015.4
20260503171711 60 228 4.0 7.0 0.00 0.00 0.00 53 1015.2
20260503171209 60 252 14.0 20.0 0.00 0.00 0.00 52 1015.3
20260503170706 60 215 3.0 7.0 0.00 0.00 0.00 53 1015.2
20260503170203 61 221 9.0 14.0 0.00 0.00 0.00 51 1014.9
20260503160124 60 202 4.0 18.0 0.00 0.00 0.00 56 1016.3
20260503150554 58 192 6.0 14.0 0.00 0.00 0.00 58 1017.1
20260503130944 50 219 3.0 9.0 0.00 0.00 0.00 72 1018.2
20260503130442 50 229 3.0 8.0 0.00 0.00 0.00 72 1018.0
20260503110332 44 205 5.0 6.0 0.00 0.00 0.00 77 1018.0
20260503100258 44 192 4.0 6.0 0.00 0.00 0.00 75 1018.2
20260503090212 44 200 4.0 5.0 0.00 0.00 0.00 72 1018.5